Showing default

IRIDIUM 145, 43253

Orbit data source: Space-Track

IRIDIUM 145, 43253 is a payload satellite owned by Iridium (US) in LEO that was launched on Fri, 30 Mar 2018 UTC via an FALCON 9 launch vehicle from the Air Force Western Test Range (AFWTR). Payload-class satellites include a variety of spacecraft equipped with specific instruments for various scientific and technological missions. These include communications satellites like Starlink; space stations such as the ISS; scientific satellites like the Hubble; Earth observation satellites from companies like Planet Labs, Umbra, and HawkEye 360; GPS; miniature CubeSats for education and research; and military/defense satellites.

Loading next visibility...
Identifier
43253, 2018-030E
Orbit
LEO
Country
Flag of USUS
Related business
Manufacturer
OATK SSG Gilbert
Mission
Operational Commercial Communications
Bus & Motor
ELITEBUS, Unknown motor
Mass
860 kg wet, 700 kg dry
Launch date (UTC)
2018-03-30 (8 years ago)
Launch vehicle
FALCON 9
Launch site
Air Force Western Test Range (AFWTR)
Object type
Payload
Rocket body
Debris
Shape & HBR
Trap Box + 2 Pan, 4.8 m
Radar Cross Section
10.154 m², Large (>1 m²)

Expand to show TLE details & history
Last TLE update: 10 hours ago

TLE from 10 hours ago
0 IRIDIUM 145
1 43253U 18030E   26095.14490015  .00000193  00000-0  61894-4 0  9990
2 43253  86.3963 320.9658 0002475  90.4902 269.6577 14.34218761419653
Epoch: 2026-04-05T03:28Z
TLE epoch observation values (Epoch: 2026-04-05T03:28:39.372Z)
Latitude
-0.00009°
Longitude
75.34721°
Altitude
780.726 km
Speed
7.463 km/s
True Right ascension
21h 23m 51s
True Declination
0° 00' 00"
Sunlit
Object was in daylight at epoch
Visualization orbit readout
Latitude
Unknown
Longitude
Unknown
Altitude
Unknown
Speed
Unknown
Apparent Right ascension
Unknown
Apparent Declination
Unknown
Sunlit
N/A
Visualization observer readout
Local Sidereal Time
19:19:49
Azimuth
Unknown
Elevation
Unknown
Doppler factor
Unknown
Orbital elements
Apogee altitude
776.399 km
Perigee altitude
772.858 km
Semi-major axis
7,152.765 km
Eccentricity
0.00025
Inclination
86.3963°
RAAN
320.9658°
Arg. of periapsis
90.4902°
True anomaly
269.62934°
Mean anomaly
269.6577°
Eccentric anomaly
269.64352°
Mean motion
3.58783 °/min
Orbital period
100.34 mins
BSTAR
0.000061894
Loading maneuver chart data...
Computing Atmospheric mass density...
Loading historical data...
Loading historical data...
Loading historical data...
Loading historical data...
Loading historical data...
Loading historical data...
Loading historical data...

Documentation

Showing up to 5 results
|